This is the latest recevied weather packets stored in our database for station/object DO1BDB-12. If no packets are shown the sender has not sent any weather packets the latest 10 day(s).
| Time | Temp. | Humidity | Pressure | Rain* | Wind** | Luminosity | Snow |
|---|---|---|---|---|---|---|---|
| 1787898348 | 19.44° C | 64% | 101 hPa | - | - | - | - |
| 1787898282 | 20° C | 64% | 101 hPa | - | - | - | - |
| 1787898216 | 20.56° C | 61% | 101.1 hPa | - | - | - | - |
| 1787898157 | 21.11° C | 60% | 101.1 hPa | - | - | - | - |
| 1787898085 | 21.67° C | 58% | 101.1 hPa | - | - | - | - |
| 1787898019 | 21.11° C | 64% | 101.1 hPa | - | - | - | - |
| 1787897953 | 20° C | 64% | 101.1 hPa | - | - | - | - |
| 1787897887 | 20° C | 67% | 101.1 hPa | - | - | - | - |
| 1787897821 | 20° C | 67% | 101.1 hPa | - | - | - | - |
| 1787897756 | 20° C | 70% | 101.1 hPa | - | - | - | - |
| 1787897690 | 19.44° C | 73% | 101.1 hPa | - | - | - | - |
| 1787897624 | 18.89° C | 74% | 101 hPa | - | - | - | - |
| 1787897558 | 18.89° C | 76% | 101 hPa | - | - | - | - |
| 1787897492 | 17.78° C | 79% | 101 hPa | - | - | - | - |
| 1787897426 | 17.78° C | 79% | 101 hPa | - | - | - | - |
| 1787897361 | 17.78° C | 78% | 101.1 hPa | - | - | - | - |
| 1787897295 | 17.78° C | 78% | 101.1 hPa | - | - | - | - |
| 1787897229 | 17.22° C | 78% | 101.1 hPa | - | - | - | - |
| 1787897163 | 17.22° C | 79% | 101.1 hPa | - | - | - | - |
| 1787897097 | 17.22° C | 80% | 101.1 hPa | - | - | - | - |
| 1787897031 | 17.22° C | 84% | 101.1 hPa | - | - | - | - |
| 1787896965 | 16.67° C | 83% | 101.1 hPa | - | - | - | - |
| 1787896900 | 17.22° C | 82% | 101.1 hPa | - | - | - | - |
| 1787896834 | 17.22° C | 81% | 101.1 hPa | - | - | - | - |
| 1787896768 | 17.78° C | 79% | 101.1 hPa | - | - | - | - |
* Rain since midnight (hover to see other rain measurements)
** Current wind speed in m/s (hover to see current wind gust speed)